emule-project.net alexa rank chart, emule-project.net alexa rank daily changes

emule-project.net alexa rank chart, emule-project.net alexa rank daily changes

emule-project.net
Actual rank:
39 723

RANK HISTORY

Date Rank Diff
2017/05/23 39 723 +200
2017/05/22 39 523 -4
2017/05/21 39 527 -102
2017/05/20 39 629 -217
2017/05/19 39 846 +285
2017/05/18 39 561 +41
2017/05/17 39 520 +742
2017/05/16 38 778 -258
2017/05/15 39 036 -396
2017/05/14 39 432 +172
2017/05/13 39 260 -401
2017/05/12 39 661 -32
2017/05/11 39 693 +128
2017/05/10 39 565 +79
2017/05/09 39 486 +190
2017/05/08 39 296 -808
2017/05/07 40 104 -601
2017/05/06 40 705 -134
2017/05/05 40 839 +81
2017/05/04 40 758 +903
2017/05/03 39 855 +65
2017/05/02 39 790 -242
2017/05/01 40 032 -438
2017/04/30 40 470 -381
2017/04/29 40 851 -163
2017/04/28 41 014 +836
2017/04/27 40 178 -211
2017/04/26 40 389 +470
2017/04/25 39 919 -174
2017/04/24 40 093 +326
2017/04/23 39 767 +324
2017/04/22 39 443 -134
2017/04/21 39 577 +1 259
2017/04/20 38 318 +873
2017/04/19 37 445 -335
2017/04/18 37 780 -209
2017/04/17 37 989 -456
2017/04/16 38 445 -186
2017/04/15 38 631 +79
2017/04/14 38 552 +411
2017/04/13 38 141 +710
2017/04/12 37 431 +693
2017/04/11 36 738 -410
2017/04/10 37 148 +289
2017/04/09 36 859 -347
2017/04/08 37 206 -75
2017/04/07 37 281 +983
2017/04/06 36 298 +313
2017/04/05 35 985 +348
2017/04/04 35 637 -134
2017/04/03 35 771 -446
2017/04/02 36 217 -251
2017/04/01 36 468 +388
2017/03/31 36 080 +523
2017/03/30 35 557 +278
2017/03/29 35 279 +467
2017/03/28 34 812 -535
2017/03/27 35 347 +1 408
2017/03/26 33 939 -151
2017/03/25 34 090 -139
2017/03/24 34 229

WIDGET FOR YOUR SITE

DOMAINS WITH THE NEAREST RANK

Domain Rank
doctoralia.es 39 718
demandforce.com 39 719
gofugyourself.com 39 720
8h9.space 39 721
apkhome.org 39 722
emule-project.net 39 723
biologydiscussion.com 39 724
findamasters.com 39 725
cut.ac.za 39 726
new-worldsex.com 39 727
iij.ad.jp 39 728

DOMAINS WITH THE NEAREST RANK BY TLD .net

Domain Rank
ero-anime.net 39 661
baixartorrent.net 39 662
hermess.net 39 668
harikonotora.net 39 693
kan84.net 39 711
emule-project.net 39 723
pornoruporno.net 39 729
tafsir.net 39 741
hr-manager.net 39 754
lemurov.net 39 821
life-hacking.net 39 858